Location: Grange Rosano
(44.4500°N, 6.9667°E)
Time: 21:24:03
(UTC+00:00)

Cosmos 2228 - Pass Details

Date: 26 May 2022
Orbit: 586 x 617 km, 82.5° (Epoch: 01 July)

Event Time Altitude Azimuth Distance (km) Brightness Sun altitude
Rises 01:57:02 0° 354° (N) 2,892 7.3 -16.3°
Reaches altitude 10° 01:59:17 10° 357° (N) 1,978 6.4 -16.0°
Maximum altitude 02:03:39 67° 80° (E) 663 3.3 -15.6°
Drops below altitude 10° 02:07:56 10° 163° (SSE) 1,944 5.3 -15.1°
Enters shadow 02:07:58 10° 163° (SSE) 1,962 5.3 -15.1°
